Погода в Батагае

Россия / Республика Саха (Якутия)     67°39′16″N   134°37′40″E
темп.,
°C
ветер,
м/с
пор.,
м/с
влажн.,
%
обл.,
%
осадки,
мм/ч
давл.,
гПа
погр.,
м
3 марта, ср
ср301:00−39сз1110040 0.0 102618
04:00−40сз1110055 0.0 102518
07:00−40сз1110097 0.0 102518
10:00−38сз119899 0.0 102472
13:00−35сз2392100 0.0 1022339
16:00−34ссз2392100 0.1 1020395
19:00−37с2298100 0.0 102123
22:00−39ссз2298100 0.0 102024
4 марта, чт
чт401:00−38ссз2497100 0.0 1020246
04:00−38сз2498100 0.2 1020246
07:00−39сз1298100 0.1 102151
10:00−39сз1296100 0.1 1021130
13:00−36сз1287100 0.0 1022398
16:00−35з1188100 0.0 1022380
19:00−36ююз1198100 0.0 102430
22:00−35ююз1199100 0.1 102431
5 марта, пт
пт501:00−34ю1198100 0.1 102419
04:00−34юв1197100 0.1 102519
07:00−34вюв1197100 0.1 102619
10:00−33вюв1196100 0.1 102665
13:00−31зсз0192100 0.0 1026278
16:00−28сз2391100 0.1 1025429
19:00−29ссз2297100 0.0 102725
22:00−30сз2398100 0.1 102788
6 марта, сб
сб601:00−30сз2398100 0.0 1027122
04:00−30сз2298100 0.1 102888
07:00−31сз2298100 0.1 102851
10:00−30сз2396100 0.1 1028234
13:00−28ссз2390100 0.1 1027409
16:00−27ссз2388100 0.1 1027436
19:00−29с1196100 0.0 102719
22:00−32ссв1198100 0.0 102719
7 марта, вс
вс701:00−33всв1199100 0.0 102619
04:00−34вюв1199100 0.0 102719
07:00−34вюв1298100 0.0 102719
10:00−32вюв1194100 0.0 102651
13:00−29вюв2290100 0.0 1025237
16:00−29вюв2289100 0.0 1024237
19:00−32вюв2294100 0.0 102419
22:00−33вюв2294100 0.0 102419